Flag for Spain Weather past 2 weeks in Santa Cruz de Tenerife, Canary Islands, Spain

Now
64 °F

Scattered clouds.


Feels Like: 64 °F
Forecast: 64 / 69 °F
Wind: 6 mph from North

Location: Tenerife / Los Rodeos


UV Index: 7 (High)

Visibility: N/A


Pressure: 30.15 "Hg

Humidity: 68%

Dew point: 54 °F

Location of Santa Cruz de TenerifeLocation

Historic Weather in Santa Cruz de Tenerife

°F

Santa Cruz de Tenerife temperature yesterday

Maximum temperature yesterday: 63 °F (at 4:00 PM)
Minimum temperature yesterday: 55 °F (at 6:00 AM)
Average temperature yesterday: 59 °F

Past Weeks' High & Low Weather Summary

 TemperatureHumidityPressure
High70 °F (Apr 7, 4:00 PM)100% (Apr 4, 6:30 AM)30.24 "Hg (Apr 4, 6:30 AM)
Low46 °F (Apr 3, 6:30 AM)15% (Apr 5, 10:30 AM)29.89 "Hg (Apr 2, 11:00 AM)
Average59 °F83%30.05 "Hg
* Reported Apr 2 11:00 AM — Apr 17 11:30 AM, Santa Cruz de Tenerife, Weather by CustomWeather, © 2014

Note: Actual official high and low records may vary slightly from our data, if they occured in-between our weather recording intervals... More about our weather records

Advertising

Historic Weather Conditions — Data for Previous 24 hours

 ConditionsComfort  
Time TempWeatherWind HumidityBarometerVisibility
11:30 AM
Apr 17
63 °FScattered clouds.6 mph73%30.15 "HgN/A
11:00 AM61 °FPartly sunny.3 mph77%30.15 "HgN/A
10:30 AM61 °FScattered clouds.7 mph77%30.12 "HgN/A
10:00 AM61 °FPassing clouds.5 mph77%30.12 "HgN/A
9:30 AM59 °FPassing clouds.3 mph88%30.12 "HgN/A
9:00 AM57 °FPassing clouds.3 mph88%30.09 "HgN/A
8:30 AM55 °FPassing clouds.5 mph94%30.09 "HgN/A
8:00 AM52 °FPassing clouds.5 mph100%30.09 "HgN/A
7:30 AM54 °FPassing clouds.7 mph94%30.09 "HgN/A
7:00 AM52 °FPassing clouds.9 mph100%30.09 "HgN/A
6:30 AM52 °FPassing clouds.8 mph94%30.09 "HgN/A
6:00 AM52 °FPassing clouds.8 mph100%30.09 "HgN/A
12:00 AM55 °FPassing clouds.2 mph94%30.12 "HgN/A
11:30 PM
Apr 16
55 °FPassing clouds.3 mph88%30.12 "HgN/A
11:00 PM55 °FPassing clouds.No wind82%30.12 "HgN/A
10:30 PM55 °FPassing clouds.1 mph82%30.12 "HgN/A
10:00 PM55 °FPassing clouds.2 mph94%30.12 "HgN/A
9:30 PM55 °FPassing clouds.5 mph100%30.09 "HgN/A
9:00 PM57 °FScattered clouds.5 mph94%30.09 "HgN/A
8:30 PM59 °FScattered clouds.5 mph88%30.09 "HgN/A
8:00 PM63 °FScattered clouds.1 mph73%30.09 "HgN/A
7:30 PM63 °FScattered clouds.2 mph83%30.07 "HgN/A
7:00 PM61 °FScattered clouds.2 mph88%30.07 "HgN/A
6:30 PM61 °FScattered clouds.2 mph88%30.07 "HgN/A
6:00 PM63 °FScattered clouds.5 mph83%30.07 "HgN/A
5:30 PM61 °FScattered clouds.6 mph88%30.07 "HgN/A
5:00 PM61 °FScattered clouds.6 mph83%30.07 "HgN/A
4:30 PM61 °FScattered clouds.6 mph88%30.09 "HgN/A
4:00 PM63 °FScattered clouds.6 mph88%30.09 "Hg4 mi
3:30 PM59 °FPartly sunny.7 mph94%30.09 "Hg4 mi
3:00 PM59 °FPartly sunny.5 mph94%30.09 "Hg4 mi
2:00 PM61 °FPartly sunny.6 mph88%30.12 "Hg4 mi
1:30 PM61 °FPartly sunny.7 mph88%30.12 "HgN/A
1:00 PM61 °FPartly sunny.7 mph83%30.12 "HgN/A
12:30 PM61 °FPartly sunny.6 mph88%30.12 "HgN/A
12:00 PM61 °FPartly sunny.5 mph88%30.12 "HgN/A
Weather by CustomWeather, © 2014

See weather overview